Change the Weather History Date:

Thursday, February 28, 2013

  Actual Average Record
Temperature  
Mean Temperature 74 °F -  
Max Temperature 79 °F 75 °F 81 °F (1999)
Min Temperature 69 °F 67 °F 61 °F (2012)
Cooling Degree Days 9    
Growing Degree Days 24 (Base 50)    
Moisture  
Dew Point 59 °F    
Average Humidity 62    
Maximum Humidity 73    
Minimum Humidity 46    
Precipitation  
Precipitation 0.00 in - - ()
Sea Level Pressure  
Sea Level Pressure 30.17 in    
Wind  
Wind Speed 11 mph (ENE)    
Max Wind Speed 15 mph    
Max Gust Speed 25 mph    
Visibility 8 miles    
Events      
Averages and records for this station are not official NWS values.
T = Trace of Precipitation, MM = Missing Value Source: NWS Daily Summary

Daily Weather History Graph

Daily Weather History Graph

Search for Another Location

Airport or City:

Trip Planner

Search our weather history database for the weather conditions in past years. The results will help you decide how hot, cold, wet, or windy it might be!

Date:

Astronomy

Feb. 28, 2013 Rise Set
Actual Time 6:52 AM HST 6:35 PM HST
Civil Twilight 6:29 AM HST 6:57 PM HST
Nautical Twilight 6:03 AM HST 7:23 PM HST
Astronomical Twilight 5:38 AM HST 7:49 PM HST
Moon 9:39 PM HST (2/28) 8:38 AM HST (2/28)
Length of Visible Light 12h 27m
Length of Day
11h 43m
Waning Gibbous, 89% of the Moon is Illuminated
Feb 28
Waning Gibbous
Mar 4
Last Quarter
Mar 11
New
Mar 19
First Quarter
Mar 26
Full

Hourly Weather History & Observations

Time (HST) Temp. Dew Point Humidity Pressure Visibility Wind Dir Wind Speed Gust Speed Precip Events Conditions
12:57 AM 71.6 °F 59.0 °F 64% 30.15 in 7.0 mi East 9.2 mph - N/A   Scattered Clouds
1:57 AM 71.6 °F 61.0 °F 69% 30.14 in 7.0 mi East 8.1 mph 19.6 mph N/A   Scattered Clouds
2:57 AM 69.8 °F 57.0 °F 64% 30.13 in 7.0 mi ENE 10.4 mph 19.6 mph N/A   Scattered Clouds
3:57 AM 69.8 °F 55.0 °F 59% 30.13 in 7.0 mi East 11.5 mph 20.7 mph N/A   Scattered Clouds
4:57 AM 69.8 °F 57.0 °F 64% 30.14 in 7.0 mi ENE 8.1 mph 18.4 mph N/A   Scattered Clouds
5:57 AM 69.8 °F 61.0 °F 73% 30.14 in 7.0 mi ENE 9.2 mph 23.0 mph 0.00 in   Mostly Cloudy
6:57 AM 69.8 °F 61.0 °F 73% 30.16 in 7.0 mi ENE 12.7 mph 21.9 mph N/A   Mostly Cloudy
7:57 AM 69.8 °F 59.0 °F 68% 30.18 in 7.0 mi ENE 11.5 mph 21.9 mph N/A   Mostly Cloudy
8:57 AM 73.8 °F 59.0 °F 60% 30.20 in 7.0 mi East 11.5 mph 25.3 mph N/A   Mostly Cloudy
9:57 AM 77.2 °F 55.0 °F 46% 30.20 in 7.0 mi East 12.7 mph 21.9 mph N/A   Scattered Clouds
10:57 AM 76.3 °F 57.0 °F 51% 30.20 in 10.0 mi ENE 11.5 mph 18.4 mph N/A   Scattered Clouds
11:57 AM 77.9 °F 60.1 °F 54% 30.19 in 7.0 mi ENE 11.5 mph 23.0 mph N/A   Partly Cloudy
12:57 PM 78.3 °F 55.9 °F 46% 30.17 in 7.0 mi ENE 9.2 mph 19.6 mph N/A   Scattered Clouds
1:57 PM 79.2 °F 59.0 °F 50% 30.15 in 7.0 mi ENE 10.4 mph 19.6 mph N/A   Mostly Cloudy
2:57 PM 78.1 °F 60.1 °F 54% 30.14 in 7.0 mi ENE 13.8 mph 19.6 mph N/A   Mostly Cloudy
3:57 PM 77.4 °F 60.1 °F 55% 30.13 in 7.0 mi NE 11.5 mph 18.4 mph N/A   Partly Cloudy
4:57 PM 77.4 °F 62.1 °F 59% 30.14 in 7.0 mi ENE 10.4 mph 17.3 mph N/A   Scattered Clouds
5:57 PM 75.0 °F 60.1 °F 60% 30.15 in 7.0 mi NE 9.2 mph 17.3 mph N/A   Scattered Clouds
6:57 PM 73.0 °F 61.0 °F 66% 30.18 in 7.0 mi ENE 11.5 mph 18.4 mph N/A   Scattered Clouds
7:57 PM 73.0 °F 60.1 °F 64% 30.19 in 7.0 mi NE 13.8 mph 20.7 mph N/A   Overcast
8:57 PM 71.2 °F 60.1 °F 68% 30.21 in 7.0 mi NE 12.7 mph 21.9 mph N/A   Scattered Clouds
9:57 PM 70.5 °F 60.1 °F 69% 30.22 in 10.0 mi ENE 11.5 mph 24.2 mph N/A   Scattered Clouds
10:57 PM 70.2 °F 61.0 °F 73% 30.21 in 10.0 mi ENE 15.0 mph 23.0 mph N/A   Mostly Cloudy
11:57 PM 70.2 °F 60.1 °F 70% 30.21 in 10.0 mi ENE 11.5 mph 20.7 mph N/A   Overcast